QTR49Q OTHH-LGAV

Flight info

Callsign QTR49Q
Flight time N/A
Altitude 29000
Route DATRI2W/34L DATRI L564 MIGMA/N0523F280 M628 AMBAG/N0500F360 M321 RESAL/N0493F380 M321 KSA T503 OVANO L768 FIRAS R655 KTN R785 NIKAS M978 LCA M601 VADUS DCT EVENO UM601 RDS UL995 VARIX
Aircraft A35K/H-SDE2E3GHIJ3J4J5LM1ORWXY/LB1D1

Departure

Time 2026-05-03 20:15
Airport Hamad International Airport (OTHH)

Arrival

Time N/A
Airport Athens Eleftherios Venizelos International Airport (LGAV)
Time Latitude Longitude Altitude Speed Heading
2026-05-03 20:15 25.39513 51.41524 9340 ft 279 kts 221°
2026-05-03 20:15 25.37901 51.40313 9930 ft 282 kts 219°
2026-05-03 20:15 25.36119 51.39308 10269 ft 298 kts 205°
2026-05-03 20:15 25.33997 51.38908 10460 ft 324 kts 182°
2026-05-03 20:16 25.31713 51.39343 10701 ft 342 kts 170°
2026-05-03 20:16 25.29369 51.40020 10943 ft 354 kts 168°
2026-05-03 20:16 25.26949 51.40734 11160 ft 366 kts 168°
2026-05-03 20:16 25.24450 51.41467 11359 ft 377 kts 168°
2026-05-03 20:17 25.21870 51.42220 11567 ft 388 kts 168°
2026-05-03 20:17 25.19228 51.42988 11744 ft 398 kts 168°
2026-05-03 20:17 25.16527 51.43772 11996 ft 405 kts 167°
2026-05-03 20:17 25.13790 51.44565 12349 ft 408 kts 167°
2026-05-03 20:18 25.11034 51.45363 12739 ft 411 kts 167°
2026-05-03 20:18 25.08266 51.46163 13104 ft 414 kts 167°
2026-05-03 20:18 25.05469 51.46971 13476 ft 416 kts 166°
2026-05-03 20:18 25.02659 51.47783 13833 ft 418 kts 166°
2026-05-03 20:19 24.99837 51.48597 14186 ft 420 kts 166°
2026-05-03 20:19 24.97002 51.49414 14563 ft 422 kts 166°
2026-05-03 20:19 24.94161 51.50233 14918 ft 423 kts 167°
2026-05-03 20:19 24.91308 51.51055 15296 ft 424 kts 167°
2026-05-03 20:20 24.88449 51.51878 15699 ft 425 kts 167°
2026-05-03 20:20 24.85626 51.52690 16080 ft 426 kts 167°
2026-05-03 20:20 24.82755 51.53516 16442 ft 428 kts 167°
2026-05-03 20:20 24.79869 51.54345 16805 ft 430 kts 167°
2026-05-03 20:21 24.76969 51.55178 17164 ft 432 kts 167°
2026-05-03 20:21 24.74057 51.56008 17523 ft 433 kts 167°
2026-05-03 20:21 24.71082 51.56508 17864 ft 433 kts 180°
2026-05-03 20:21 24.68087 51.56270 18193 ft 432 kts 190°
2026-05-03 20:22 24.65118 51.55705 18449 ft 434 kts 193°
2026-05-03 20:22 24.62159 51.54991 18747 ft 436 kts 195°
2026-05-03 20:22 24.59209 51.54224 19075 ft 436 kts 195°
2026-05-03 20:22 24.56252 51.53454 19401 ft 438 kts 195°
2026-05-03 20:23 24.53282 51.52699 19718 ft 439 kts 194°
2026-05-03 20:23 24.50297 51.51963 20035 ft 440 kts 194°
2026-05-03 20:23 24.47299 51.51242 20338 ft 442 kts 194°
2026-05-03 20:23 24.44291 51.50529 20648 ft 443 kts 194°
2026-05-03 20:24 24.41275 51.49820 20944 ft 444 kts 194°
2026-05-03 20:24 24.38245 51.49110 21243 ft 446 kts 193°
2026-05-03 20:24 24.35211 51.48397 21536 ft 447 kts 194°
2026-05-03 20:24 24.32169 51.47663 21829 ft 448 kts 194°
2026-05-03 20:25 24.29124 51.46920 22111 ft 449 kts 194°
2026-05-03 20:25 24.26072 51.46174 22393 ft 450 kts 194°
2026-05-03 20:25 24.23009 51.45428 22675 ft 451 kts 194°
2026-05-03 20:25 24.19942 51.44684 22951 ft 453 kts 194°
2026-05-03 20:26 24.16856 51.43938 23220 ft 454 kts 194°
2026-05-03 20:26 24.13771 51.43199 23472 ft 455 kts 193°
2026-05-03 20:26 24.10639 51.42600 23708 ft 457 kts 189°
2026-05-03 20:26 24.07474 51.42196 23914 ft 459 kts 188°
2026-05-03 20:27 24.04296 51.41854 24244 ft 457 kts 187°
2026-05-03 20:27 24.01164 51.41537 24852 ft 447 kts 187°
2026-05-03 20:27 23.98134 51.41252 25442 ft 439 kts 187°
2026-05-03 20:27 23.95071 51.41143 25675 ft 443 kts 183°
2026-05-03 20:28 23.91972 51.41190 25780 ft 448 kts 181°
2026-05-03 20:28 23.88835 51.41309 25879 ft 453 kts 180°
2026-05-03 20:28 23.85667 51.41465 25978 ft 458 kts 180°
2026-05-03 20:28 23.82471 51.41636 26073 ft 462 kts 180°
2026-05-03 20:29 23.79241 51.41810 26178 ft 466 kts 180°
2026-05-03 20:29 23.75986 51.41980 26286 ft 470 kts 180°
2026-05-03 20:29 23.72702 51.42146 26379 ft 474 kts 180°
2026-05-03 20:29 23.69394 51.42308 26475 ft 478 kts 180°
2026-05-03 20:30 23.66057 51.42470 26595 ft 481 kts 180°
2026-05-03 20:30 23.62703 51.42631 26744 ft 483 kts 180°
2026-05-03 20:30 23.59337 51.42792 26909 ft 485 kts 180°
2026-05-03 20:30 23.55961 51.42954 27076 ft 487 kts 180°
2026-05-03 20:31 23.52572 51.43116 27256 ft 488 kts 180°
2026-05-03 20:31 23.49178 51.43269 27432 ft 489 kts 182°
2026-05-03 20:31 23.45785 51.43116 27601 ft 486 kts 190°
2026-05-03 20:31 23.42479 51.42412 27766 ft 483 kts 199°
2026-05-03 20:32 23.39319 51.41194 27951 ft 481 kts 206°
2026-05-03 20:32 23.36282 51.39678 28097 ft 481 kts 209°
2026-05-03 20:32 23.33300 51.38020 28268 ft 482 kts 211°
2026-05-03 20:32 23.30335 51.36319 28439 ft 482 kts 211°
2026-05-03 20:33 23.27357 51.34621 28616 ft 484 kts 210°
2026-05-03 20:33 23.24362 51.32948 28756 ft 485 kts 210°
2026-05-03 20:33 23.21340 51.31298 28927 ft 486 kts 210°
2026-05-03 20:33 23.18307 51.29667 29088 ft 487 kts 209°
2026-05-03 20:34 23.15263 51.28045 29221 ft 488 kts 209°
2026-05-03 20:34 23.12244 51.26442 29389 ft 489 kts 209°
2026-05-03 20:34 23.09183 51.24818 29544 ft 490 kts 209°
2026-05-03 20:35 23.03029 51.21551 29764 ft 494 kts 209°
2026-05-03 20:35 22.99942 51.19912 29917 ft 495 kts 209°
2026-05-03 20:35 22.96862 51.18244 30063 ft 494 kts 211°
2026-05-03 20:35 22.93943 51.16302 30233 ft 491 kts 217°
2026-05-03 20:36 22.91227 51.14085 30460 ft 487 kts 223°
2026-05-03 20:36 22.88773 51.11566 30693 ft 484 kts 230°
2026-05-03 20:36 22.86688 51.08727 30887 ft 480 kts 238°
2026-05-03 20:36 22.85036 51.05592 31124 ft 478 kts 246°
2026-05-03 20:37 22.83863 51.02234 31362 ft 476 kts 255°
2026-05-03 20:37 22.83188 50.98736 31576 ft 475 kts 263°
2026-05-03 20:37 22.82999 50.95167 31797 ft 475 kts 270°
2026-05-03 20:37 22.83144 50.91592 32032 ft 474 kts 274°
2026-05-03 20:38 22.83459 50.88038 32252 ft 474 kts 275°
2026-05-03 20:38 22.83841 50.84490 32481 ft 474 kts 276°
2026-05-03 20:38 22.84232 50.80940 32712 ft 473 kts 275°
2026-05-03 20:38 22.84487 50.78545 32866 ft 473 kts 275°
2026-05-03 20:39 22.84841 50.75051 33097 ft 473 kts 275°
2026-05-03 20:39 22.85184 50.71461 33342 ft 472 kts 274°
2026-05-03 20:39 22.85504 50.67974 33590 ft 471 kts 274°
2026-05-03 20:39 22.85819 50.64438 33833 ft 471 kts 274°
2026-05-03 20:40 22.86131 50.60903 34055 ft 470 kts 274°
2026-05-03 20:40 22.86445 50.57328 34269 ft 470 kts 274°
2026-05-03 20:40 22.86751 50.53846 34498 ft 470 kts 274°
2026-05-03 20:40 22.87059 50.50325 34732 ft 469 kts 274°
2026-05-03 20:41 22.87368 50.46811 34998 ft 467 kts 274°
2026-05-03 20:41 22.87674 50.43314 35265 ft 466 kts 274°
2026-05-03 20:41 22.87981 50.39817 35471 ft 466 kts 274°
2026-05-03 20:41 22.88285 50.36321 35653 ft 466 kts 274°
2026-05-03 20:42 22.88590 50.32821 35868 ft 466 kts 274°
2026-05-03 20:42 22.88894 50.29324 36091 ft 465 kts 274°
2026-05-03 20:42 22.89195 50.25840 36305 ft 465 kts 274°
2026-05-03 20:42 22.89497 50.22349 36520 ft 464 kts 274°
2026-05-03 20:43 22.89797 50.18866 36744 ft 464 kts 274°
2026-05-03 20:43 22.90097 50.15375 36896 ft 465 kts 274°
2026-05-03 20:43 22.90396 50.11885 37089 ft 465 kts 274°
2026-05-03 20:43 22.90694 50.08399 37300 ft 464 kts 274°
2026-05-03 20:44 22.90990 50.04919 37508 ft 463 kts 274°
2026-05-03 20:44 22.91286 50.01444 37698 ft 463 kts 274°
2026-05-03 20:44 22.91582 49.97956 37821 ft 465 kts 274°
2026-05-03 20:45 22.92175 49.90928 37829 ft 469 kts 274°
2026-05-03 20:45 22.92767 49.83884 37824 ft 468 kts 274°
2026-05-03 20:46 22.93355 49.76861 37838 ft 467 kts 274°
2026-05-03 20:46 22.93938 49.69847 37819 ft 467 kts 274°
2026-05-03 20:47 22.94519 49.62821 37825 ft 468 kts 274°
2026-05-03 20:47 22.95097 49.55796 37825 ft 467 kts 267°
2026-05-03 20:48 22.95638 49.48770 37823 ft 468 kts 274°
2026-05-03 20:48 22.96223 49.41787 37826 ft 468 kts 274°
2026-05-03 20:49 22.96806 49.34749 37832 ft 468 kts 274°
2026-05-03 20:49 22.97376 49.27709 37827 ft 469 kts 274°
2026-05-03 20:50 22.97941 49.20647 37843 ft 470 kts 274°
2026-05-03 20:50 22.98501 49.13597 37836 ft 468 kts 274°
2026-05-03 20:51 22.99058 49.06563 37840 ft 468 kts 274°
2026-05-03 20:51 22.99612 48.99515 37834 ft 469 kts 274°
2026-05-03 20:52 23.00179 48.92457 37835 ft 469 kts 274°
2026-05-03 20:52 23.01176 48.85456 37840 ft 471 kts 284°
2026-05-03 20:53 23.03850 48.78949 37837 ft 476 kts 301°
2026-05-03 20:53 23.08113 48.73411 37858 ft 481 kts 311°
2026-05-03 20:54 23.12942 48.68369 37847 ft 481 kts 314°
2026-05-03 20:54 23.20218 48.60854 37850 ft 481 kts 313°
2026-05-03 20:55 23.25007 48.55770 37849 ft 481 kts 312°
2026-05-03 20:55 23.29771 48.50672 37857 ft 480 kts 312°
2026-05-03 20:56 23.34526 48.45575 37861 ft 480 kts 312°
2026-05-03 20:56 23.39282 48.40476 37862 ft 480 kts 312°
2026-05-03 20:57 23.44044 48.35368 37877 ft 481 kts 312°
2026-05-03 20:57 23.48802 48.30262 37875 ft 480 kts 312°
2026-05-03 20:58 23.53552 48.25155 37875 ft 480 kts 312°
2026-05-03 20:58 23.58303 48.20047 37881 ft 480 kts 311°
2026-05-03 20:59 23.63047 48.14926 37888 ft 480 kts 311°
2026-05-03 20:59 23.67784 48.09805 37892 ft 479 kts 311°
2026-05-03 21:00 23.71714 48.05554 37897 ft 479 kts 311°
2026-05-03 21:00 23.77214 47.99603 37905 ft 479 kts 311°
2026-05-03 21:01 23.81944 47.94478 37908 ft 479 kts 311°
2026-05-03 21:01 23.86668 47.89362 37914 ft 478 kts 311°
2026-05-03 21:02 23.91388 47.84237 37919 ft 478 kts 311°
2026-05-03 21:02 23.96098 47.79113 37959 ft 478 kts 311°
2026-05-03 21:03 24.00813 47.73980 37975 ft 478 kts 310°
2026-05-03 21:03 24.05525 47.68846 37992 ft 478 kts 310°
2026-05-03 21:04 24.10233 47.63712 37999 ft 478 kts 310°
2026-05-03 21:04 24.14940 47.58573 37994 ft 478 kts 310°
2026-05-03 21:05 24.19643 47.53430 37990 ft 479 kts 310°
2026-05-03 21:05 24.24364 47.48271 37979 ft 479 kts 310°
2026-05-03 21:06 24.29078 47.43112 37963 ft 479 kts 309°
2026-05-03 21:06 24.33780 47.37952 37952 ft 478 kts 310°
2026-05-03 21:07 24.38486 47.32795 37952 ft 479 kts 310°
2026-05-03 21:07 24.43183 47.27618 37954 ft 479 kts 310°
2026-05-03 21:08 24.47891 47.22438 37968 ft 479 kts 310°
2026-05-03 21:08 24.52558 47.17300 37970 ft 478 kts 310°
2026-05-03 21:09 24.57247 47.12129 37974 ft 478 kts 310°
2026-05-03 21:09 24.61944 47.06944 37979 ft 479 kts 310°